Showing default

SES 2, 37809

Orbit data source: Space-Track

SES 2, 37809 is a payload satellite owned by SES Sat. Leasing (LU) in GEO that was launched on Wed, 21 Sep 2011 UTC via an ARIANE 5ECA launch vehicle from the French Guiana (FRGUI). Payload-class satellites include a variety of spacecraft equipped with specific instruments for various scientific and technological missions. These include communications satellites like Starlink; space stations such as the ISS; scientific satellites like the Hubble; Earth observation satellites from companies like Planet Labs, Umbra, and HawkEye 360; GPS; miniature CubeSats for education and research; and military/defense satellites.

Loading next visibility...
Identifier
37809, 2011-049A
Orbit
GEO
Country
Flag of LULU / SES
Related business
Manufacturer
OSC
Mission
Operational Commercial Communications
Bus & Motor
STAR-2.4, BT-4
Mass
3,200 kg wet, ~1,500 kg dry
Launch date (UTC)
2011-09-21 (15 years ago)
Launch vehicle
ARIANE 5ECA
Launch site
French Guiana (FRGUI)
Object type
Payload
Rocket body
Debris
Shape & HBR
Box + 2 Pan, 11.8 m
Radar Cross Section
27.062 m², Large (>1 m²)

Expand to show TLE details & history
Last TLE update: 9 hours ago

TLE from 9 hours ago
0 SES 2
1 37809U 11049A   26095.17475478 -.00000195  00000-0  00000-0 0  9993
2 37809   0.0559  66.6922 0002958 311.0655 151.6350  1.00272243 53239
Epoch: 2026-04-05T04:11Z
TLE epoch observation values (Epoch: 2026-04-05T04:11:38.812Z)
Latitude
0.03228°
Longitude
-86.98049°
Altitude
35,796.984 km
Speed
3.074 km/s
True Right ascension
11h 17m 39s
True Declination
0° 01' 56"
Sunlit
Object was in daylight at epoch
Visualization orbit readout
Latitude
Unknown
Longitude
Unknown
Altitude
Unknown
Speed
Unknown
Apparent Right ascension
Unknown
Apparent Declination
Unknown
Sunlit
N/A
Visualization observer readout
Local Sidereal Time
19:26:54
Azimuth
Unknown
Elevation
Unknown
Doppler factor
Unknown
Orbital elements
Apogee altitude
35,800.01 km
Perigee altitude
35,775.064 km
Semi-major axis
42,165.674 km
Eccentricity
0.0003
Inclination
0.0559°
RAAN
66.6922°
Arg. of periapsis
311.0655°
True anomaly
151.6511°
Mean anomaly
151.635°
Eccentric anomaly
151.64305°
Mean motion
0.25067 °/min
Orbital period
1,436.14 mins
BSTAR
0
Loading maneuver chart data...
Computing Atmospheric mass density...
Loading historical data...
Loading historical data...
Loading historical data...
Loading historical data...
Loading historical data...
Loading historical data...
Loading historical data...
Other satellites on launch #49 in the year 2011 (2011-09-21 UTC)

Documentation

Showing up to 5 results
|